• In Romania
  • List of Countries
  • For 7 days
  • Water Temperature
  • Satellite Maps
  • Weather Map
  • Weather Widgets
  • user-avatar
    Login

    Hourly Weather Ahtopol

    Today, 15 December, Friday

    Time Temperature Precipitation Wind Pressure Humidity
    00:00 +10°C° 0 mm 2 mps 758 mmHg 89%
    01:00 +9°C° 0 mm 2 mps 758 mmHg 90%
    02:00 +9°C° 0 mm 2 mps 758 mmHg 90%
    03:00 +9°C° 0 mm 2 mps 758 mmHg 90%
    04:00 +9°C° 0 mm 2 mps 758 mmHg 90%
    05:00 +8°C° 0 mm 2 mps 758 mmHg 90%
    06:00 +8°C° 0 mm 2 mps 758 mmHg 90%
    07:00 +8°C° 0 mm 2 mps 758 mmHg 90%
    08:00 +8°C° 0 mm 2 mps 758 mmHg 90%
    09:00 +10°C° 0 mm 2 mps 758 mmHg 84%
    10:00 +12°C° 0 mm 2 mps 758 mmHg 77%
    11:00 +13°C° 0 mm 3 mps 759 mmHg 71%
    12:00 +14°C° 0 mm 3 mps 758 mmHg 67%
    13:00 +15°C° 0 mm 4 mps 758 mmHg 64%
    14:00 +17°C° 0 mm 4 mps 757 mmHg 61%
    15:00 +15°C° 0 mm 4 mps 757 mmHg 65%
    16:00 +14°C° 0 mm 4 mps 757 mmHg 69%
    17:00 +13°C° 0 mm 4 mps 757 mmHg 73%
    18:00 +13°C° 0 mm 5 mps 757 mmHg 76%
    19:00 +13°C° 0 mm 5 mps 757 mmHg 80%
    20:00 +11°C° 0 mm 6 mps 756 mmHg 83%
    21:00 +11°C° 0 mm 6 mps 756 mmHg 84%
    22:00 +12°C° 0 mm 7 mps 756 mmHg 85%
    23:00 +12°C° 0 mm 7 mps 756 mmHg 87%

    Tomorrow, 16 December, Saturday

    Time Temperature Precipitation Wind Pressure Humidity
    00:00 +12°C° 0 mm 8 mps 755 mmHg 86%
    01:00 +12°C° 0 mm 8 mps 755 mmHg 86%
    02:00 +12°C° 0 mm 8 mps 755 mmHg 86%
    03:00 +12°C° 0 mm 8 mps 755 mmHg 86%
    04:00 +12°C° 0 mm 8 mps 754 mmHg 86%
    05:00 +12°C° 0 mm 8 mps 754 mmHg 86%
    06:00 +12°C° 0 mm 8 mps 754 mmHg 85%
    07:00 +12°C° 0 mm 8 mps 754 mmHg 84%
    08:00 +12°C° 0 mm 8 mps 754 mmHg 83%
    09:00 +13°C° 0 mm 9 mps 754 mmHg 76%
    10:00 +15°C° 0 mm 9 mps 754 mmHg 70%
    11:00 +16°C° 0 mm 9 mps 754 mmHg 64%
    12:00 +16°C° 0 mm 9 mps 754 mmHg 62%
    13:00 +17°C° 0 mm 10 mps 754 mmHg 61%
    14:00 +18°C° 0 mm 10 mps 753 mmHg 59%
    15:00 +17°C° 0 mm 9 mps 753 mmHg 63%
    16:00 +16°C° 0 mm 9 mps 753 mmHg 67%
    17:00 +15°C° 0 mm 9 mps 753 mmHg 71%
    18:00 +15°C° 0 mm 9 mps 753 mmHg 73%
    19:00 +15°C° 0 mm 9 mps 754 mmHg 74%
    20:00 +15°C° 0 mm 9 mps 754 mmHg 76%
    21:00 +15°C° 0.3 mm 9 mps 754 mmHg 77%
    22:00 +15°C° 0.3 mm 8 mps 754 mmHg 78%
    23:00 +13°C° 0.3 mm 8 mps 754 mmHg 80%

    Day after tomorrow, 17 December, Sunday

    Time Temperature Precipitation Wind Pressure Humidity
    00:00 +13°C° 0.7 mm 8 mps 753 mmHg 81%
    01:00 +14°C° 0.7 mm 7 mps 753 mmHg 82%
    02:00 +14°C° 0.7 mm 7 mps 752 mmHg 83%
    03:00 +13°C° 0.7 mm 8 mps 752 mmHg 83%
    04:00 +13°C° 0.7 mm 8 mps 752 mmHg 83%
    05:00 +13°C° 0.7 mm 8 mps 751 mmHg 84%
    06:00 +11°C° 2.2 mm 8 mps 752 mmHg 83%
    07:00 +10°C° 2.2 mm 8 mps 752 mmHg 83%
    08:00 +9°C° 2.2 mm 8 mps 752 mmHg 83%
    09:00 +8°C° 1.7 mm 7 mps 753 mmHg 82%
    10:00 +8°C° 1.7 mm 7 mps 754 mmHg 81%
    11:00 +7°C° 1.7 mm 6 mps 754 mmHg 79%
    12:00 +7°C° 0.1 mm 6 mps 755 mmHg 78%
    13:00 +7°C° 0.1 mm 6 mps 755 mmHg 77%
    14:00 +7°C° 0.1 mm 6 mps 756 mmHg 76%
    15:00 +7°C° 0 mm 6 mps 757 mmHg 76%
    16:00 +7°C° 0 mm 5 mps 757 mmHg 77%
    17:00 +6°C° 0 mm 5 mps 758 mmHg 77%
    18:00 +6°C° 0.1 mm 5 mps 759 mmHg 77%
    19:00 +6°C° 0.1 mm 5 mps 760 mmHg 77%
    20:00 +5°C° 0.1 mm 5 mps 760 mmHg 76%
    21:00 +5°C° 0.3 mm 5 mps 761 mmHg 77%
    22:00 +5°C° 0.3 mm 4 mps 762 mmHg 77%
    23:00 +4°C° 0.3 mm 4 mps 762 mmHg 78%

    18 December, Monday

    Time Temperature Precipitation Wind Pressure Humidity
    00:00 +4°C° 0.3 mm 4 mps 763 mmHg 78%
    01:00 +4°C° 0.3 mm 4 mps 763 mmHg 78%
    02:00 +3°C° 0.3 mm 5 mps 763 mmHg 78%
    03:00 +2°C° 0.3 mm 5 mps 763 mmHg 79%
    04:00 +2°C° 0.3 mm 5 mps 763 mmHg 79%
    05:00 +2°C° 0.3 mm 5 mps 763 mmHg 79%
    06:00 +2°C° 0.3 mm 5 mps 763 mmHg 80%
    07:00 +1°C° 0.3 mm 5 mps 764 mmHg 81%
    08:00 +1°C° 0.3 mm 5 mps 764 mmHg 82%
    09:00 +1°C° 0.3 mm 5 mps 764 mmHg 82%
    10:00 +1°C° 0.3 mm 5 mps 764 mmHg 82%
    11:00 +1°C° 0.3 mm 5 mps 764 mmHg 82%
    12:00 +1°C° 0.5 mm 5 mps 764 mmHg 82%
    13:00 +1°C° 0.5 mm 6 mps 764 mmHg 82%
    14:00 +1°C° 0.5 mm 6 mps 763 mmHg 82%
    15:00 +1°C° 0.3 mm 5 mps 764 mmHg 83%
    16:00 +1°C° 0.3 mm 5 mps 764 mmHg 84%
    17:00 +1°C° 0.3 mm 4 mps 764 mmHg 85%
    18:00 +1°C° 0.1 mm 4 mps 764 mmHg 86%
    19:00 0°C° 0.1 mm 4 mps 765 mmHg 86%
    20:00 0°C° 0.1 mm 4 mps 765 mmHg 87%
    21:00 0°C° 0.1 mm 4 mps 766 mmHg 87%
    22:00 0°C° 0.1 mm 4 mps 766 mmHg 88%
    23:00 0°C° 0.1 mm 4 mps 766 mmHg 89%

    19 December, Tuesday

    Time Temperature Precipitation Wind Pressure Humidity
    00:00 -1°C° 0 mm 4 mps 767 mmHg 90%
    01:00 -1°C° 0 mm 4 mps 767 mmHg 91%
    02:00 0°C° 0 mm 3 mps 767 mmHg 91%
    03:00 0°C° 0 mm 3 mps 767 mmHg 91%
    04:00 -1°C° 0 mm 3 mps 768 mmHg 91%
    05:00 -1°C° 0 mm 3 mps 768 mmHg 91%
    06:00 -1°C° 0 mm 2 mps 768 mmHg 90%
    07:00 -1°C° 0 mm 2 mps 769 mmHg 88%
    08:00 -1°C° 0 mm 2 mps 769 mmHg 87%
    09:00 +1°C° 0 mm 2 mps 769 mmHg 83%
    10:00 +2°C° 0 mm 2 mps 770 mmHg 78%
    11:00 +4°C° 0 mm 2 mps 770 mmHg 74%
    12:00 +5°C° 0 mm 1 mps 770 mmHg 72%
    13:00 +5°C° 0 mm 1 mps 769 mmHg 71%
    14:00 +6°C° 0 mm 1 mps 769 mmHg 69%
    15:00 +5°C° 0 mm 1 mps 769 mmHg 72%
    16:00 +4°C° 0 mm 1 mps 769 mmHg 76%
    17:00 +4°C° 0 mm 1 mps 769 mmHg 79%
    18:00 +3°C° 0 mm 1 mps 769 mmHg 80%
    19:00 +3°C° 0 mm 1 mps 769 mmHg 81%
    20:00 +3°C° 0 mm 1 mps 769 mmHg 81%
    21:00 +3°C° 0 mm 1 mps 769 mmHg 82%
    22:00 +3°C° 0 mm 1 mps 769 mmHg 82%
    23:00 +2°C° 0 mm 2 mps 769 mmHg 82%

    20 December, Wednesday

    Time Temperature Precipitation Wind Pressure Humidity
    00:00 +2°C° 0.1 mm 2 mps 769 mmHg 82%
    01:00 +2°C° 0.1 mm 2 mps 769 mmHg 81%
    02:00 +2°C° 0.1 mm 2 mps 769 mmHg 81%
    03:00 +2°C° 0.1 mm 2 mps 769 mmHg 80%
    04:00 +2°C° 0.1 mm 2 mps 769 mmHg 80%
    05:00 +2°C° 0.1 mm 2 mps 769 mmHg 79%
    06:00 +1°C° 0.2 mm 3 mps 769 mmHg 79%
    07:00 +1°C° 0.2 mm 3 mps 769 mmHg 78%
    08:00 +1°C° 0.2 mm 3 mps 769 mmHg 78%
    09:00 +1°C° 0.3 mm 3 mps 770 mmHg 75%
    10:00 +2°C° 0.3 mm 3 mps 770 mmHg 73%
    11:00 +3°C° 0.3 mm 4 mps 770 mmHg 71%
    12:00 +3°C° 0.3 mm 4 mps 770 mmHg 71%
    13:00 +3°C° 0.3 mm 4 mps 770 mmHg 72%
    14:00 +4°C° 0.3 mm 4 mps 769 mmHg 72%
    15:00 +3°C° 0.2 mm 4 mps 770 mmHg 75%
    16:00 +3°C° 0.2 mm 4 mps 770 mmHg 78%
    17:00 +1°C° 0.2 mm 4 mps 770 mmHg 81%
    18:00 +1°C° 0.1 mm 4 mps 770 mmHg 82%
    19:00 0°C° 0.1 mm 4 mps 771 mmHg 84%
    20:00 0°C° 0.1 mm 4 mps 771 mmHg 85%
    21:00 0°C° 0 mm 4 mps 771 mmHg 86%
    22:00 -1°C° 0 mm 4 mps 771 mmHg 87%
    23:00 -1°C° 0 mm 4 mps 771 mmHg 88%
    Show more